Seattle, WA

6:58 PM PDT on May 25, 2017 (GMT -0700)
Seattle-Tacoma International

Weather History for KSEA - March, 2014

Change the Weather History Date:

Wednesday, March 26, 2014

  Actual Average Record
Temperature  
Mean Temperature 47 °F 48 °F  
Max Temperature 52 °F 55 °F 70 °F (1969)
Min Temperature 42 °F 40 °F 30 °F (1947)
Degree Days  
Heating Degree Days 18 17  
Month to date heating degree days 421 488  
Since 1 July heating degree days 3496 3742  
Cooling Degree Days 0 0  
Month to date cooling degree days 0 0  
Year to date cooling degree days 0 0  
Moisture  
Dew Point 41 °F    
Average Humidity 79    
Maximum Humidity 89    
Minimum Humidity 68    
Precipitation  
Precipitation 0.14 in 0.11 in 1.51 in (2005)
Month to date precipitation 8.01 3.17  
Year to date precipitation 17.82 12.24  
Snow  
Snow 0.00 in - T in (2008)
Month to date snowfall T  
Since 1 July snowfall 4.0  
Snow Depth 0.00 in    
Sea Level Pressure  
Sea Level Pressure 29.59 in    
Wind  
Wind Speed 5 mph (South)    
Max Wind Speed 12 mph    
Max Gust Speed 17 mph    
Visibility 10 miles    
Events Rain    
T = Trace of Precipitation, MM = Missing Value Source: NWS Daily Summary

Daily Weather History Graph

Daily Weather History Graph

Search for Another Location

Airport or City:

Trip Planner

Search our weather history database for the weather conditions in past years. The results will help you decide how hot, cold, wet, or windy it might be!

Date:

Astronomy

Mar. 26, 2014 Rise Set
Actual Time 6:59 AM PDT 7:30 PM PDT
Civil Twilight 6:29 AM PDT 8:01 PM PDT
Nautical Twilight 5:52 AM PDT 8:38 PM PDT
Astronomical Twilight 5:14 AM PDT 9:16 PM PDT
Moon 4:29 AM PDT 2:59 PM PDT
Length of Visible Light 13h 32m
Length of Day
12h 30m
Waning Crescent, 21% of the Moon is Illuminated
Mar 26
Waning Crescent
Mar 30
New
Apr 7
First Quarter
Apr 15
Full
Apr 22
Last Quarter

Hourly Weather History & Observations

Time (PDT) Temp. Windchill Dew Point Humidity Pressure Visibility Wind Dir Wind Speed Gust Speed Precip Events Conditions
12:53 AM 46.0 °F 42.5 °F 41.0 °F 83% 29.66 in 10.0 mi South 6.9 mph - N/A   Overcast
1:53 AM 45.0 °F 41.8 °F 39.9 °F 82% 29.66 in 10.0 mi SSW 5.8 mph - 0.02 in   Mostly Cloudy
2:53 AM 45.0 °F 41.8 °F 39.9 °F 82% 29.65 in 10.0 mi SSW 5.8 mph - N/A   Overcast
3:53 AM 44.1 °F 40.8 °F 41.0 °F 89% 29.64 in 10.0 mi South 5.8 mph - N/A   Overcast
4:53 AM 42.1 °F 37.7 °F 39.0 °F 89% 29.63 in 10.0 mi SSE 6.9 mph - N/A   Scattered Clouds
5:53 AM 43.0 °F 39.5 °F 37.9 °F 82% 29.61 in 10.0 mi ESE 5.8 mph - N/A   Scattered Clouds
6:53 AM 43.0 °F 38.8 °F 37.9 °F 82% 29.61 in 10.0 mi ESE 6.9 mph - N/A   Mostly Cloudy
7:53 AM 43.0 °F 40.3 °F 37.9 °F 82% 29.60 in 10.0 mi SE 4.6 mph - N/A   Mostly Cloudy
8:53 AM 45.0 °F 42.6 °F 39.0 °F 80% 29.60 in 10.0 mi SE 4.6 mph - N/A   Overcast
9:53 AM 45.0 °F 42.6 °F 39.9 °F 82% 29.61 in 8.0 mi SSE 4.6 mph - 0.00 in Rain Light Rain
10:53 AM 46.0 °F 44.8 °F 41.0 °F 83% 29.61 in 9.0 mi East 3.5 mph - 0.02 in Rain Light Rain
11:53 AM 48.9 °F - 42.1 °F 77% 29.60 in 10.0 mi Calm Calm - 0.01 in   Overcast
12:53 PM 50.0 °F - 42.1 °F 74% 29.59 in 10.0 mi Calm Calm - N/A   Overcast
1:53 PM 52.0 °F - 41.0 °F 66% 29.57 in 10.0 mi South 8.1 mph - N/A   Overcast
2:53 PM 50.0 °F - 42.1 °F 74% 29.57 in 10.0 mi SSW 5.8 mph - 0.00 in Rain Light Rain
3:53 PM 50.0 °F - 42.1 °F 74% 29.56 in 10.0 mi Calm Calm - 0.00 in   Overcast
4:38 PM 50.0 °F - 44.6 °F 82% 29.54 in 10.0 mi SSW 9.2 mph - 0.00 in Rain Light Rain
4:53 PM 48.9 °F - 44.1 °F 83% 29.57 in 9.0 mi SSW 10.4 mph - 0.01 in Rain Light Rain
5:16 PM 48.2 °F - 44.6 °F 87% 29.54 in 6.0 mi South 4.6 mph - 0.04 in Rain Light Rain
5:53 PM 48.0 °F - 42.1 °F 80% 29.56 in 10.0 mi SSE 5.8 mph - 0.04 in   Overcast
6:53 PM 48.0 °F - 45.0 °F 89% 29.55 in 10.0 mi SE 8.1 mph - N/A   Overcast
7:22 PM 48.2 °F - 44.6 °F 87% 29.53 in 7.0 mi South 6.9 mph - 0.01 in Rain Light Rain
7:53 PM 46.9 °F - 43.0 °F 86% 29.55 in 10.0 mi South 8.1 mph - 0.01 in   Overcast
8:53 PM 46.0 °F 42.5 °F 43.0 °F 89% 29.58 in 7.0 mi South 6.9 mph - 0.03 in Rain Light Rain
9:53 PM 45.0 °F 41.8 °F 42.1 °F 90% 29.58 in 10.0 mi South 5.8 mph - 0.00 in   Mostly Cloudy
10:53 PM 45.0 °F 40.6 °F 41.0 °F 86% 29.59 in 10.0 mi South 8.1 mph - N/A   Mostly Cloudy
11:53 PM 45.0 °F 41.8 °F 41.0 °F 86% 29.60 in 10.0 mi South 5.8 mph - N/A   Overcast